Home   Weather   Tegucigalpa   Past weeks

Flag for Honduras Past Weather in Tegucigalpa, Honduras — Yesterday and Last 2 Weeks

Now
77 °F

Thunderstorms. Passing clouds.


Feels Like: 79 °F
Forecast: 65 / 85 °F
Wind: 5 mph from Southeast

Location: Tegucigalpa Airport

Current Time: Sep 24, 2016 at 6:33:00 PM

Latest Report: Sep 24, 2016 at 6:00 PM


Visibility: N/A

Pressure: 30.07 "Hg (26.65 "Hg at 1054m altitude)

Humidity: 74%

Dew Point: 68 °F

Location of TegucigalpaLocation

Past Weather in Tegucigalpa — Graph

°F

Tegucigalpa Temperature Yesterday

Maximum temperature yesterday: 81 °F (at 3:00 PM)
Minimum temperature yesterday: 66 °F (at 5:00 AM)
Average temperature yesterday: 72 °F

High & Low Weather Summary for the Past Weeks

 TemperatureHumidityPressure
High88 °F (Sep 12, 3:00 PM)100% (Sep 9, 9:00 PM)30.21 "Hg (Sep 9, 9:00 PM)
Low64 °F (Sep 11, 2:00 AM)40% (Sep 11, 4:00 PM)29.92 "Hg (Sep 12, 3:00 PM)
Average74 °F81%30.08 "Hg
* Reported Sep 9 5:00 PM — Sep 24 5:00 PM, Tegucigalpa, Weather by CustomWeather, © 2016

Note: Actual official high and low records may vary slightly from our data, if they occured in-between our weather recording intervals... More about our weather records

Advertising

Tegucigalpa Weather History for the Previous 24 Hours

Scroll right to see more
 ConditionsComfort  
Time TempWeatherWind HumidityBarometerVisibility
5:00 PM
Sat, Sep 24
79 °FScattered clouds.5 mph65%30.04 "HgN/A
4:00 PM82 °FBroken clouds.5 mph58%30.01 "HgN/A
3:00 PM86 °FBroken clouds.7 mph49%30.04 "HgN/A
2:00 PM84 °FBroken clouds.9 mph51%30.07 "HgN/A
1:00 PM82 °FPartly sunny.No wind51%30.09 "HgN/A
12:00 PM79 °FPartly sunny.7 mph61%30.12 "HgN/A
11:00 AM81 °FBroken clouds.8 mph66%30.15 "HgN/A
10:00 AM77 °FPartly sunny.7 mph74%30.15 "HgN/A
9:00 AM75 °FPartly sunny.5 mph83%30.15 "HgN/A
8:00 AM72 °FFog.No wind94%30.15 "HgN/A
7:00 AM68 °FPartly sunny.No wind100%30.15 "Hg5 mi
6:00 AM66 °FPartly sunny.No wind100%30.12 "Hg4 mi
5:00 AM66 °FPassing clouds.No wind100%30.09 "Hg4 mi
3:00 AM66 °FPartly cloudy.No wind100%30.07 "Hg5 mi
2:00 AM66 °FDrizzle. Mostly cloudy.No wind100%30.07 "Hg5 mi
1:00 AM66 °FLight rain. Mostly cloudy.No wind100%30.09 "Hg5 mi
12:00 AM68 °FLight rain. Mostly cloudy.No wind100%30.12 "Hg5 mi
11:00 PM
Fri, Sep 23
68 °FThunderstorms. Mostly cloudy.No wind100%30.15 "Hg5 mi
10:00 PM68 °FThunderstorms. Partly cloudy.3 mph100%30.15 "Hg6 mi
9:00 PM70 °FThunderstorms. Partly cloudy.7 mph94%30.12 "HgN/A
8:00 PM70 °FPassing clouds.No wind50%30.09 "HgN/A
7:00 PM72 °FPassing clouds.9 mph88%30.07 "HgN/A
6:00 PM72 °FPassing clouds.5 mph88%30.07 "HgN/A
Weather by CustomWeather, © 2016

See weather overviewHow to use our weather pages